Location: Unspecified
(0.0000°N, 0.0000°E)
Time: 19:05:13
(UTC+00:00)

XW-2C - Visible Passes

Search period start: 21 October 2021 00:00
Search period end: 31 October 2021 00:00
Orbit: 503 x 526 km, 97.5° (Epoch: 21 October)

Date Brightness Start Highest point End Pass type
(mag) Time Alt. Az. Time Alt. Az. Time Alt. Az.
23 Oct ? 05:15:35 10° NNE 05:19:02 37° ESE 05:22:32 10° S visible
24 Oct ? 05:01:03 10° NE 05:03:55 21° ESE 05:06:50 10° SSE visible
24 Oct ? 18:28:17 10° SW 18:30:16 14° WSW 18:32:13 10° WNW visible
25 Oct ? 04:47:10 10° ENE 04:48:49 13° ESE 04:50:29 10° SE visible
25 Oct ? 18:12:06 10° SSW 18:15:09 23° WSW 18:18:10 10° NW visible
30 Oct ? 05:03:53 10° NE 05:06:56 24° ESE 05:10:01 10° SSE visible
30 Oct ? 18:31:41 10° SW 18:33:15 12° WSW 18:34:49 10° WNW visible
